Memphis

Airport
ICAO code: 
KMEM
Summary
ICAO Region: 
NAM
Territory: 
Location: 
Memphis, Tennessee,
Serving: 
Memphis, Tennessee
Coordinates: 
Aerial View: 
35° 2' 40.927" N, 89° 58' 53.972" W
Airport LOS: 
Parallel Runway Operation
Metar
Observation
KMEM 260454Z 02011KT 10SM BKN150 M02/M09 A3038 RMK AO2 SLP291 T10171094 $
Station
Memphis, Memphis International Airport
Date/Time
2022-01-26 04:54:00
Wind direction
20°
Wind speed
11 kts
Lowest cloud amount
broken clouds
Temperature
-1.7°C
Dew point
-9.4°C
Humidity
55%
Weather condition
n/a

Description

International airport 3 nm south of the center of the city of Memphis, Tennessee, USA.

Climatology

Humid “subtropical” climate (Köppen climate classification Cfa) - characterized by hot, humid summers and cool winters. Significant amounts of precipitation occur in all seasons in most areas. Winter rainfall (and sometimes snowfall) is associated with large storms that the westerlies steer from west to east. Most summer rainfall occurs during thunderstorms and occasional tropical storms (hurricanes).

Runways

Designator Length Width Surface Rops
9/27 2727 46 ASP Yes/Yes
18L/36R 2743 46 CON Yes/Yes
18R/36L 2841 46 CON Yes/Yes
18C/36C 3389 46 CON Yes/Yes
Airport map: 
Aerial View: 

SKYbrary Partners:

Safety knowledge contributed by: